Location: ??????
(38.0131°N, 23.7723°E)
Time: 02:19:04
(UTC+00:00)

Cosmos 1300 - Pass Details

Date: 17 October 2021
Orbit: 509 x 512 km, 82.5° (Epoch: 04 December)

Event Time Altitude Azimuth Distance (km) Brightness Sun altitude
Rises 16:35:43 0° 156° (SSE) 2,610 6.1 -10.8°
Reaches altitude 10° 16:38:10 10° 141° (SE) 1,730 5.0 -11.3°
Maximum altitude 16:41:08 22° 89° (E) 1,154 3.8 -11.9°
Drops below altitude 10° 16:44:07 10° 38° (NE) 1,741 5.0 -12.5°
Sets 16:46:35 0° 23° (NNE) 2,632 6.0 -13.0°
